Kodiak, AK

11:43 AM AKST on January 19, 2018 (GMT -0900)
Kodiak

Weather History for PADQ - May, 2013

Change the Weather History Date:

Wednesday, May 1, 2013

  Actual Average Record
Temperature  
Mean Temperature 39 °F 41 °F  
Max Temperature 42 °F 47 °F 59 °F (2003)
Min Temperature 35 °F 36 °F 28 °F (1945)
Degree Days  
Heating Degree Days 26 24  
Month to date heating degree days 26 24  
Since 1 July heating degree days 7896 7716  
Cooling Degree Days 0 0  
Month to date cooling degree days 0 0  
Year to date cooling degree days 0 0  
Moisture  
Dew Point 35 °F    
Average Humidity 0    
Maximum Humidity 0    
Minimum Humidity 0    
Precipitation  
Precipitation 0.27 in 0.18 in 1.64 in (1916)
Month to date precipitation 0.27 0.18  
Year to date precipitation 23.49 25.95  
Snow  
Snow 0.00 in 0.00 in - ()
Month to date snowfall 0.0 0.0  
Since 1 July snowfall 64.7 68.7  
Snow Depth 0.00 in    
Sea Level Pressure  
Sea Level Pressure 29.58 in    
Wind  
Wind Speed 10 mph (NE)    
Max Wind Speed 13 mph    
Max Gust Speed 16 mph    
Visibility 9 miles    
Events Rain    
T = Trace of Precipitation, MM = Missing Value Source: NWS Daily Summary

Daily Weather History Graph

Daily Weather History Graph

Search for Another Location

Airport or City:

Trip Planner

Search our weather history database for the weather conditions in past years. The results will help you decide how hot, cold, wet, or windy it might be!

Date:

Astronomy

May. 01, 2013 Rise Set
Actual Time 6:17 AM AKDT 9:58 PM AKDT
Civil Twilight 5:29 AM AKDT 10:46 PM AKDT
Nautical Twilight 4:20 AM AKDT 11:56 PM AKDT
Astronomical Twilight 2:39 AM AKDT 1:34 AM AKDT
Moon 3:14 AM AKDT (5/1) 12:11 PM AKDT (5/1)
Length of Visible Light 17h 16m
Length of Day
15h 40m
Waning Gibbous, 57% of the Moon is Illuminated
May 1
Waning Gibbous
May 2
Last Quarter
May 9
New
May 17
First Quarter
May 24
Full

Hourly Weather History & Observations

Time (AKDT) Temp. Windchill Dew Point Humidity Pressure Visibility Wind Dir Wind Speed Gust Speed Precip Events Conditions
12:53 AM 37.9 °F 30.0 °F 30.9 °F 76% 29.67 in 10.0 mi ENE 12.7 mph - 0.00 in Rain Light Rain
1:53 AM 37.9 °F 29.6 °F 33.1 °F 83% 29.65 in 7.0 mi NE 13.8 mph - 0.00 in Rain Light Rain
2:23 AM 37.4 °F 28.2 °F 33.8 °F 87% 29.63 in 6.0 mi ENE 16.1 mph - 0.02 in Rain Rain
2:53 AM 37.0 °F 28.1 °F 34.0 °F 89% 29.62 in 7.0 mi NE 15.0 mph - 0.04 in Rain Light Rain
3:11 AM 37.4 °F 27.8 °F 33.8 °F 87% 29.61 in 5.0 mi NE 17.3 mph - 0.02 in Rain Light Rain
3:53 AM 36.0 °F 26.7 °F 34.0 °F 93% 29.60 in 8.0 mi NNE 15.0 mph - 0.04 in Rain Light Rain
4:53 AM 35.1 °F 30.1 °F 32.0 °F 89% 29.57 in 7.0 mi NNW 5.8 mph - 0.04 in Rain Rain
5:53 AM 35.1 °F 27.9 °F 33.1 °F 92% 29.55 in 7.0 mi North 9.2 mph - 0.06 in Rain Light Rain
6:03 AM 35.6 °F 29.2 °F 33.8 °F 93% 29.54 in 8.0 mi North 8.1 mph - 0.01 in Rain Light Rain
6:53 AM 36.0 °F 29.0 °F 33.1 °F 89% 29.53 in 5.0 mi North 9.2 mph - 0.04 in Rain Light Rain
7:53 AM 36.0 °F 29.6 °F 33.1 °F 89% 29.52 in 6.0 mi North 8.1 mph - 0.06 in Rain Light Rain
8:53 AM 37.0 °F 29.8 °F 34.0 °F 89% 29.51 in 10.0 mi North 10.4 mph 16.1 mph 0.01 in Rain Light Rain
9:53 AM 37.9 °F 30.5 °F 35.1 °F 89% 29.51 in 10.0 mi NNW 11.5 mph 17.3 mph 0.02 in Rain Light Rain
10:53 AM 37.9 °F 32.7 °F 35.1 °F 89% 29.55 in 3.0 mi North 6.9 mph - 0.00 in Rain Light Rain
11:46 AM 39.2 °F 33.0 °F 35.6 °F 87% 29.50 in 10.0 mi WNW 9.2 mph - 0.03 in Rain Light Rain
11:53 AM 39.9 °F 34.5 °F 36.0 °F 86% 29.51 in 10.0 mi WNW 8.1 mph - 0.03 in Rain Light Rain
12:05 PM 41.0 °F 35.2 °F 37.4 °F 87% 29.50 in 7.0 mi WNW 9.2 mph - 0.01 in Rain Light Rain
12:53 PM 41.0 °F 36.4 °F 36.0 °F 82% 29.52 in 10.0 mi NW 6.9 mph - 0.01 in   Overcast
1:01 PM 42.8 °F 41.1 °F 37.4 °F 81% 29.52 in 10.0 mi Variable 3.5 mph - N/A   Overcast
1:53 PM 41.0 °F 39.0 °F 36.0 °F 82% 29.54 in 8.0 mi North 3.5 mph - N/A   Overcast
2:53 PM 41.0 °F 35.8 °F 36.0 °F 82% 29.55 in 10.0 mi NW 8.1 mph - 0.00 in Rain Light Rain
3:40 PM 41.0 °F 37.1 °F 37.4 °F 87% 29.56 in 10.0 mi East 5.8 mph - 0.00 in   Overcast
3:53 PM 41.0 °F 37.1 °F 37.0 °F 86% 29.57 in 10.0 mi ENE 5.8 mph - 0.00 in   Overcast
4:00 PM 41.0 °F 38.0 °F 35.6 °F 81% 29.56 in 10.0 mi East 4.6 mph - N/A   Overcast
4:53 PM 41.0 °F - 36.0 °F 82% 29.58 in 7.0 mi Calm Calm - 0.01 in Rain Light Rain
5:53 PM 41.0 °F 39.0 °F 36.0 °F 82% 29.60 in 10.0 mi SE 3.5 mph - 0.02 in Rain Light Rain
6:53 PM 41.0 °F 38.0 °F 37.0 °F 86% 29.61 in 10.0 mi SSE 4.6 mph - 0.00 in Rain Light Rain
7:53 PM 39.9 °F 35.8 °F 36.0 °F 86% 29.62 in 10.0 mi ESE 5.8 mph - 0.00 in Rain Light Rain
8:53 PM 39.9 °F 35.8 °F 35.1 °F 83% 29.63 in 10.0 mi SE 5.8 mph - 0.00 in Rain Light Rain
9:51 PM 39.2 °F 33.6 °F 35.6 °F 87% 29.64 in 10.0 mi SE 8.1 mph - 0.00 in Rain Light Rain
9:53 PM 39.0 °F 34.0 °F 36.0 °F 89% 29.64 in 10.0 mi SE 6.9 mph - 0.00 in Rain Light Rain
10:53 PM 39.9 °F 34.5 °F 36.0 °F 86% 29.65 in 10.0 mi SE 8.1 mph - 0.00 in   Overcast
11:10 PM 39.2 °F 33.6 °F 35.6 °F 87% 29.65 in 10.0 mi SE 8.1 mph - N/A   Overcast
11:53 PM 39.9 °F 35.1 °F 36.0 °F 86% 29.66 in 10.0 mi SE 6.9 mph - N/A   Overcast